Weather History for Vero Beach, FL

Change the Weather History Date:

Tuesday, February 12, 2013

  Actual Average Record
Temperature  
Mean Temperature 71 °F 64 °F  
Max Temperature 86 °F 74 °F 87 °F (1994)
Min Temperature 55 °F 54 °F 35 °F (1973)
Degree Days  
Heating Degree Days 0 4  
Month to date heating degree days 39 48  
Since 1 July heating degree days 187 335  
Cooling Degree Days 6 3  
Month to date cooling degree days 26 28  
Year to date cooling degree days 160 89  
Growing Degree Days 20 (Base 50)    
Moisture  
Dew Point 61 °F    
Average Humidity 72    
Maximum Humidity 100    
Minimum Humidity 43    
Precipitation  
Precipitation 0.00 in 0.09 in 0.98 in (2010)
Month to date precipitation 0.00 1.11  
Year to date precipitation 1.52 3.61  
Sea Level Pressure  
Sea Level Pressure 30.07 in    
Wind  
Wind Speed 7 mph (South)    
Max Wind Speed 20 mph    
Max Gust Speed 24 mph    
Visibility 7 miles    
Events Fog    
T = Trace of Precipitation, MM = Missing Value Source: NWS Daily Summary

Daily Weather History Graph

Daily Weather History Graph

Search for Another Location

Airport:

Trip Planner

Search our weather history database for the weather conditions in past years. The results will help you decide how hot, cold, wet, or windy it might be!

Date:

Astronomy

Feb. 12, 2013 Rise Set
Actual Time 7:01 AM EST 6:11 PM EST
Civil Twilight 6:37 AM EST 6:35 PM EST
Nautical Twilight 6:09 AM EST 7:02 PM EST
Astronomical Twilight 5:42 AM EST 7:30 PM EST
Moon 8:15 AM EST (2/12) 8:48 PM EST (2/12)
Length of Visible Light 11h 58m
Length of Day
11h 10m
Waxing Crescent, 7% of the Moon is Illuminated
Feb 12
Waxing Crescent
Feb 17
First Quarter
Feb 25
Full
Mar 4
Last Quarter
Mar 11
New

Hourly Weather History & Observations

Time (EST) Temp. Heat Index Dew Point Humidity Pressure Visibility Wind Dir Wind Speed Gust Speed Precip Events Conditions
12:53 AM 68.0 °F - 62.1 °F 81% 30.12 in 10.0 mi South 6.9 mph - N/A   Scattered Clouds
1:53 AM 64.9 °F - 62.1 °F 90% 30.12 in 10.0 mi South 3.5 mph - N/A   Clear
2:53 AM 64.0 °F - 61.0 °F 90% 30.10 in 10.0 mi South 3.5 mph - N/A   Clear
3:53 AM 60.1 °F - 59.0 °F 96% 30.09 in 9.0 mi Calm Calm - N/A   Clear
4:37 AM 59.0 °F - 57.2 °F 94% 30.09 in 1.8 mi Calm Calm - N/A   Clear
4:53 AM 57.9 °F - 57.0 °F 97% 30.09 in 0.2 mi Calm Calm - N/A Fog Fog
5:02 AM 57.2 °F - 55.4 °F 94% 30.09 in 0.5 mi Calm Calm - N/A Fog Fog
5:12 AM 57.2 °F - 55.4 °F 94% 30.10 in 0.2 mi Calm Calm - N/A Fog Fog
5:26 AM 57.2 °F - 55.4 °F 94% 30.09 in 1.0 mi Calm Calm - N/A   Mist
5:28 AM 57.2 °F - 55.4 °F 94% 30.09 in 3.0 mi Calm Calm - N/A   Mostly Cloudy
5:39 AM 60.8 °F - 57.2 °F 88% 30.09 in 1.8 mi Calm Calm - N/A   Overcast
5:51 AM 59.0 °F - 57.2 °F 94% 30.09 in 3.0 mi Calm Calm - N/A   Scattered Clouds
5:53 AM 59.0 °F - 57.0 °F 93% 30.09 in 6.0 mi Calm Calm - N/A   Scattered Clouds
6:17 AM 55.4 °F - 55.4 °F 100% 30.10 in 1.8 mi Calm Calm - N/A   Clear
6:29 AM 55.4 °F - 53.6 °F 94% 30.10 in 0.5 mi Calm Calm - N/A Fog Fog
6:36 AM 55.4 °F - 55.4 °F 100% 30.10 in 0.5 mi Calm Calm - N/A Fog Fog
6:53 AM 57.0 °F - 55.9 °F 96% 30.10 in 0.5 mi Calm Calm - N/A Fog Fog
7:04 AM 55.4 °F - 55.4 °F 100% 30.10 in 5.0 mi Calm Calm - N/A   Clear
7:53 AM 62.1 °F - 61.0 °F 96% 30.11 in 5.0 mi Calm Calm - N/A   Clear
8:53 AM 71.1 °F - 64.9 °F 81% 30.12 in 10.0 mi South 6.9 mph - N/A   Clear
9:53 AM 75.9 °F - 66.0 °F 71% 30.13 in 10.0 mi SSW 9.2 mph - N/A   Partly Cloudy
10:53 AM 79.0 °F - 64.9 °F 62% 30.12 in 10.0 mi SSW 10.4 mph - N/A   Scattered Clouds
11:53 AM 81.0 °F 82.2 °F 63.0 °F 54% 30.10 in 10.0 mi SW 11.5 mph - N/A   Mostly Cloudy
12:53 PM 84.0 °F 84.5 °F 62.1 °F 47% 30.06 in 10.0 mi SSW 10.4 mph - N/A   Mostly Cloudy
1:53 PM 84.0 °F 84.0 °F 60.1 °F 44% 30.03 in 10.0 mi SSW 12.7 mph 17.3 mph N/A   Mostly Cloudy
2:53 PM 82.9 °F 82.6 °F 57.9 °F 42% 30.00 in 10.0 mi South 8.1 mph - N/A   Scattered Clouds
3:53 PM 78.1 °F - 66.9 °F 68% 29.98 in 10.0 mi SE 16.1 mph - N/A   Mostly Cloudy
4:53 PM 77.0 °F - 66.9 °F 71% 29.98 in 10.0 mi SE 12.7 mph - N/A   Scattered Clouds
5:53 PM 75.9 °F - 66.9 °F 74% 29.97 in 10.0 mi SSE 13.8 mph 20.7 mph N/A   Overcast
6:53 PM 75.0 °F - 68.0 °F 79% 29.98 in 10.0 mi SE 12.7 mph - N/A   Overcast
7:53 PM 75.0 °F - 68.0 °F 79% 29.97 in 10.0 mi SSE 10.4 mph - N/A   Overcast
8:53 PM 73.9 °F - 66.9 °F 79% 29.99 in 10.0 mi South 6.9 mph - N/A   Scattered Clouds
9:53 PM 73.0 °F - 66.9 °F 81% 29.99 in 10.0 mi SSW 6.9 mph - N/A   Clear
10:53 PM 72.0 °F - 66.0 °F 81% 30.01 in 10.0 mi SW 5.8 mph - N/A   Partly Cloudy
11:53 PM 70.0 °F - 64.9 °F 84% 30.00 in 10.0 mi SSW 5.8 mph - N/A   Clear